Simultaneous Nadir Overpasses (SNOs) Predictions

Prediction of SNOs between FY3D and TERRA Satellite Orbit:

Table of predicted SNOs for the next 14.0 days since TLE Epoch: 10/18/2023
Index Date (FY3D) Time (FY3D) Lat,Lon (FY3D) SZA (FY3D ) Date (TERRA) Time (TERRA) Lat,Lon (TERRA) SZA (TERRA ) Distance(km) Time Diff (sec)
1 10/19/2023 10:40:33 74.30, 19.81 84.22 10/19/2023 10:41:29 74.31, 19.84 84.22 0.96 56
2 10/19/2023 11:31:17 -74.25,-172.73 95.83 10/19/2023 11:30:54 -74.23,-172.68 95.85 2.00 23
3 10/21/2023 22:44:31 -74.31, 18.85 94.89 10/21/2023 22:45:10 -74.28, 18.84 94.91 2.53 39
4 10/21/2023 23:35:16 74.25,-173.71 85.08 10/21/2023 23:34:31 74.24,-173.60 85.06 3.52 45
5 10/24/2023 10:48:30 74.28, 17.97 85.97 10/24/2023 10:48:47 74.30, 17.94 85.99 2.79 17
6 10/24/2023 11:39:14 -74.22,-174.57 94.08 10/24/2023 11:38:12 -74.24,-174.56 94.07 1.87 62
7 10/26/2023 22:01:49 74.55,-151.03 87.08 10/26/2023 22:03:01 74.43,-150.36 86.98 24.27 72
8 10/26/2023 22:52:29 -74.30, 16.95 93.15 10/26/2023 22:52:27 -74.31, 17.02 93.14 2.63 2
9 10/26/2023 23:43:05 73.81,-174.49 86.40 10/26/2023 23:41:56 73.84,-176.36 86.39 58.10 69
10 10/29/2023 10:05:43 -74.35,-151.43 92.28 10/29/2023 10:06:42 -74.35,-151.48 92.27 1.58 59
11 10/29/2023 10:56:28 74.29, 16.02 87.69 10/29/2023 10:56:03 74.30, 16.06 87.69 1.59 25
12 10/31/2023 22:09:42 74.35,-152.39 88.55 10/31/2023 22:10:17 74.35,-152.41 88.56 0.80 35
13 10/31/2023 23:00:26 -74.29, 15.06 91.50 10/31/2023 22:59:42 -74.29, 15.11 91.50 1.37 44



Historial Predications of SNOs between FY3D and TERRA
